Weather History for Willimantic, CT

Change the Weather History Date:

Wednesday, January 29, 2014

  Actual Average Record
Temperature  
Mean Temperature 20 °F -  
Max Temperature 25 °F 35 °F 66 °F (2002)
Min Temperature 14 °F 14 °F -21 °F (1961)
Degree Days  
Heating Degree Days 46    
Moisture  
Dew Point 1 °F    
Average Humidity 51    
Maximum Humidity 77    
Minimum Humidity 28    
Precipitation  
Precipitation 0.00 in - - ()
Sea Level Pressure  
Sea Level Pressure 30.14 in    
Wind  
Wind Speed 4 mph (West)    
Max Wind Speed 10 mph    
Max Gust Speed -    
Visibility 8 miles    
Events Snow    
Averages and records for this station are not official NWS values.
T = Trace of Precipitation, MM = Missing Value Source: NWS Daily Summary

Daily Weather History Graph

Daily Weather History Graph

Search for Another Location

Airport:

Trip Planner

Search our weather history database for the weather conditions in past years. The results will help you decide how hot, cold, wet, or windy it might be!

Date:

Astronomy

Jan. 29, 2014 Rise Set
Actual Time 7:03 AM EST 5:00 PM EST
Civil Twilight 6:34 AM EST 5:30 PM EST
Nautical Twilight 6:00 AM EST 6:03 PM EST
Astronomical Twilight 5:27 AM EST 6:36 PM EST
Moon 5:38 AM EST (1/29) 3:56 PM EST (1/29)
Length of Visible Light 10h 55m
Length of Day
9h 56m
Waning Crescent, 2% of the Moon is Illuminated
Jan 29
Waning Crescent
Jan 30
New
Feb 6
First Quarter
Feb 14
Full
Feb 22
Last Quarter

Hourly Weather History & Observations

Time (EST) Temp. Windchill Dew Point Humidity Pressure Visibility Wind Dir Wind Speed Gust Speed Precip Events Conditions
12:52 AM 17.1 °F 11.7 °F -4.0 °F 39% 30.21 in 10.0 mi NNW 3.5 mph - N/A   Overcast
1:52 AM 16.0 °F - -5.1 °F 39% 30.21 in 10.0 mi Calm Calm - N/A   Overcast
2:52 AM 15.1 °F 7.7 °F -0.0 °F 51% 30.20 in 8.0 mi WSW 4.6 mph - 0.00 in Snow Light Snow
3:52 AM 14.0 °F - 7.0 °F 74% 30.17 in 3.0 mi Calm Calm - 0.00 in Snow Light Snow
4:37 AM 14.0 °F 8.2 °F 7.0 °F 74% 30.14 in 2.5 mi NW 3.5 mph - 0.00 in Snow Light Snow
4:52 AM 14.0 °F 8.2 °F 8.1 °F 77% 30.15 in 2.5 mi NNW 3.5 mph - 0.00 in Snow Light Snow
5:05 AM 14.0 °F 8.2 °F 8.1 °F 77% 30.13 in 3.0 mi NNW 3.5 mph - 0.00 in Snow Light Snow
5:52 AM 14.0 °F 8.2 °F 8.1 °F 77% 30.12 in 4.0 mi North 3.5 mph - 0.00 in Snow Light Snow
6:52 AM 14.0 °F - 8.1 °F 77% 30.13 in 7.0 mi Calm Calm - 0.00 in   Overcast
7:52 AM 14.0 °F - 8.1 °F 77% 30.13 in 8.0 mi Calm Calm - N/A   Scattered Clouds
8:42 AM 14.0 °F 8.2 °F 8.1 °F 77% 30.12 in 10.0 mi West 3.5 mph - N/A   Mostly Cloudy
8:52 AM 14.0 °F 8.2 °F 7.0 °F 74% 30.14 in 10.0 mi West 3.5 mph - N/A   Mostly Cloudy
9:29 AM 14.0 °F 6.5 °F 6.1 °F 71% 30.13 in 10.0 mi WNW 4.6 mph - N/A   Partly Cloudy
9:52 AM 16.0 °F 8.8 °F 6.1 °F 65% 30.14 in 10.0 mi West 4.6 mph - N/A   Clear
10:52 AM 19.0 °F 10.0 °F 1.9 °F 47% 30.12 in 10.0 mi NNW 6.9 mph - N/A   Clear
11:52 AM 21.0 °F - -0.9 °F 38% 30.08 in 10.0 mi Calm Calm - N/A   Clear
12:52 PM 21.9 °F 11.0 °F -2.9 °F 34% 30.06 in 10.0 mi WNW 10.4 mph - N/A   Clear
1:52 PM 24.1 °F 15.2 °F -2.9 °F 31% 30.03 in 10.0 mi WSW 8.1 mph - N/A   Clear
2:52 PM 25.0 °F 16.3 °F -4.0 °F 28% 30.03 in 10.0 mi West 8.1 mph - N/A   Clear
3:52 PM 25.0 °F 15.5 °F -4.0 °F 28% 30.04 in 10.0 mi WSW 9.2 mph - N/A   Clear
4:52 PM 23.0 °F 13.9 °F -6.0 °F 28% 30.06 in 10.0 mi WSW 8.1 mph - N/A   Clear
5:52 PM 21.9 °F 15.7 °F -6.0 °F 29% 30.10 in 10.0 mi West 4.6 mph - N/A   Clear
6:52 PM 21.0 °F 13.4 °F -6.0 °F 30% 30.12 in 10.0 mi West 5.8 mph - N/A   Clear
7:52 PM 19.9 °F 12.1 °F -6.0 °F 32% 30.17 in 10.0 mi SSW 5.8 mph - N/A   Clear
8:52 PM 19.9 °F 11.1 °F -6.0 °F 32% 30.18 in 10.0 mi West 6.9 mph - N/A   Clear
9:52 PM 19.0 °F 13.9 °F -6.0 °F 33% 30.23 in 10.0 mi WNW 3.5 mph - N/A   Clear
10:52 PM 17.1 °F 11.7 °F -4.0 °F 39% 30.24 in 10.0 mi West 3.5 mph - N/A   Clear
11:52 PM 14.0 °F 8.2 °F -0.9 °F 52% 30.25 in 10.0 mi West 3.5 mph - N/A   Clear